Voltar ao catálogo

STARLINK-37538

AtivoComunicaçõesSSO
NORAD 68844·PAYLOAD·🇺🇸 United States

Lançado Apr 26, 2026 de Vandenberg Space Force Base

Loading…

Próximas Passagens (próximas 24 horas)

TLE

AtualizadoSource: CelesTrak SupGP

Época: Sep 15, 2026, 02:45 UTC

1 68844C 26094F   26258.11506944 -.00046688  00000+0 -14494-2 0  2589
2 68844  97.2835 271.2728 0001403  90.4656 126.0077 15.33461863    17

Acompanhe STARLINK-37538 em tempo real com AllMySat

Download on the App Store